Location: Unspecified
(25.6830°N, 0.0000°E)
Time: 14:35:09
(UTC+00:00)

Hubble Space Telescope - Visible Passes

Search period start: 13 November 2019 00:00
Search period end: 23 November 2019 00:00
Orbit: 536 x 540 km, 28.5° (Epoch: 13 November)

Date Brightness Start Highest point End Pass type
(mag) Time Alt. Az. Time Alt. Az. Time Alt. Az.
13 Nov 3.2 19:06:52 10° SSW 19:07:59 15° S 19:07:59 15° S visible
14 Nov 2.5 18:55:47 10° SSW 18:58:11 22° S 18:58:11 22° S visible
15 Nov 1.9 18:44:51 10° SW 18:48:21 31° SSE 18:48:21 31° SSE visible
16 Nov 1.5 18:34:01 10° SW 18:37:53 39° SSE 18:38:29 37° SE visible
17 Nov 1.2 18:23:16 10° SW 18:27:15 49° SSE 18:28:34 35° ESE visible
18 Nov 0.9 18:12:35 10° WSW 18:16:39 62° SSE 18:18:38 28° E visible
18 Nov 4.0 19:53:48 10° W 19:53:59 11° W 19:53:59 11° W visible
19 Nov 0.8 18:01:57 10° WSW 18:06:04 76° SSE 18:08:41 22° E visible
19 Nov 3.7 19:43:16 10° W 19:44:01 15° W 19:44:01 15° W visible
20 Nov 0.7 17:51:22 10° WSW 17:55:30 90° SE 17:58:42 16° ENE visible
20 Nov 3.3 19:32:45 10° W 19:34:02 19° WNW 19:34:02 19° WNW visible
21 Nov 0.8 17:40:48 10° W 17:44:55 79° N 17:48:44 12° ENE visible
21 Nov 2.8 19:22:13 10° WNW 19:24:04 25° WNW 19:24:04 25° WNW visible
22 Nov 0.9 17:30:15 10° W 17:34:22 70° N 17:38:29 10° ENE visible
22 Nov 2.3 19:11:41 10° WNW 19:14:05 32° WNW 19:14:05 32° WNW visible
